EUS17RA EINN-EGCC

Flight info

Callsign EUS17RA
Flight time 0h 52m
Altitude 33000
Route AGINI3B AGINI DCT BOFUM Q37 MALUD
Aircraft A320/M-SDE3FGHIRWY/LB1

Departure

Time 2026-05-07 19:38
Airport Shannon Airport (EINN)

Arrival

Time 2026-05-07 20:30
Airport Manchester Airport (EGCC)
Time Latitude Longitude Altitude Speed Heading
2026-05-07 18:06 52.69367 -8.91953 23 ft 0 kts 185°
2026-05-07 19:23 52.69377 -8.91952 24 ft 4 kts 184°
2026-05-07 19:24 52.69404 -8.91949 24 ft 4 kts 183°
2026-05-07 19:24 52.69431 -8.91950 22 ft 4 kts 167°
2026-05-07 19:24 52.69455 -8.91966 25 ft 4 kts 133°
2026-05-07 19:24 52.69463 -8.91988 24 ft 1 kts 103°
2026-05-07 19:25 52.69464 -8.91992 23 ft 0 kts 103°
2026-05-07 19:30 52.69463 -8.91983 24 ft 3 kts 103°
2026-05-07 19:30 52.69447 -8.91888 22 ft 9 kts 107°
2026-05-07 19:30 52.69413 -8.91778 22 ft 18 kts 139°
2026-05-07 19:31 52.69297 -8.91669 22 ft 20 kts 132°
2026-05-07 19:31 52.69286 -8.91510 22 ft 15 kts 21°
2026-05-07 19:31 52.69382 -8.91460 23 ft 13 kts 18°
2026-05-07 19:31 52.69465 -8.91414 22 ft 12 kts 19°
2026-05-07 19:32 52.69549 -8.91367 24 ft 14 kts 18°
2026-05-07 19:32 52.69639 -8.91318 22 ft 13 kts 18°
2026-05-07 19:32 52.69723 -8.91272 22 ft 16 kts 18°
2026-05-07 19:32 52.69855 -8.91198 22 ft 22 kts 19°
2026-05-07 19:33 52.70003 -8.91117 23 ft 23 kts 18°
2026-05-07 19:33 52.70159 -8.91031 22 ft 24 kts 18°
2026-05-07 19:33 52.70321 -8.90941 22 ft 25 kts 18°
2026-05-07 19:33 52.70483 -8.90852 25 ft 23 kts 19°
2026-05-07 19:34 52.70633 -8.90768 23 ft 22 kts 19°
2026-05-07 19:34 52.70768 -8.90693 25 ft 19 kts 18°
2026-05-07 19:34 52.70875 -8.90661 23 ft 13 kts 346°
2026-05-07 19:34 52.70906 -8.90692 23 ft 0 kts 323°
2026-05-07 19:35 52.70960 -8.90760 23 ft 18 kts 322°
2026-05-07 19:35 52.70966 -8.90857 23 ft 1 kts 232°
2026-05-07 19:37 52.70906 -8.90984 24 ft 47 kts 232°
2026-05-07 19:37 52.70560 -8.91729 27 ft 113 kts 232°
2026-05-07 19:37 52.69974 -8.92964 48 ft 161 kts 232°
2026-05-07 19:38 52.69298 -8.94430 648 ft 159 kts 234°
2026-05-07 19:38 52.68831 -8.96041 1422 ft 156 kts 265°
2026-05-07 19:38 52.69096 -8.97796 2026 ft 164 kts 295°
2026-05-07 19:38 52.69633 -8.99541 2419 ft 179 kts 293°
2026-05-07 19:39 52.70172 -9.01421 3025 ft 182 kts 292°
2026-05-07 19:39 52.70708 -9.03330 3641 ft 185 kts 291°
2026-05-07 19:39 52.71249 -9.05270 4241 ft 187 kts 291°
2026-05-07 19:39 52.71810 -9.07223 4832 ft 192 kts 297°
2026-05-07 19:40 52.72813 -9.08722 4987 ft 202 kts 335°
2026-05-07 19:40 52.74290 -9.08973 5019 ft 232 kts 10°
2026-05-07 19:40 52.75756 -9.07609 5258 ft 260 kts 49°
2026-05-07 19:40 52.76690 -9.04943 5741 ft 277 kts 66°
2026-05-07 19:41 52.77434 -9.01962 6533 ft 283 kts 70°
2026-05-07 19:41 52.78122 -8.98904 7361 ft 287 kts 71°
2026-05-07 19:41 52.78803 -8.95787 8211 ft 290 kts 71°
2026-05-07 19:41 52.79499 -8.92633 9056 ft 294 kts 71°
2026-05-07 19:42 52.80205 -8.89491 9893 ft 297 kts 70°
2026-05-07 19:42 52.80961 -8.86187 10269 ft 318 kts 70°
2026-05-07 19:42 52.81775 -8.82663 10585 ft 337 kts 70°
2026-05-07 19:42 52.82628 -8.78995 11215 ft 345 kts 70°
2026-05-07 19:43 52.83495 -8.75276 11914 ft 350 kts 70°
2026-05-07 19:43 52.84380 -8.71482 12613 ft 355 kts 70°
2026-05-07 19:43 52.85275 -8.67645 13321 ft 360 kts 69°
2026-05-07 19:43 52.86184 -8.63743 13980 ft 365 kts 70°
2026-05-07 19:44 52.87103 -8.59785 14600 ft 370 kts 70°
2026-05-07 19:44 52.88028 -8.55788 15225 ft 374 kts 70°
2026-05-07 19:44 52.88959 -8.51758 15832 ft 378 kts 70°
2026-05-07 19:44 52.89889 -8.47719 16440 ft 382 kts 70°
2026-05-07 19:45 52.90841 -8.43585 17045 ft 386 kts 70°
2026-05-07 19:45 52.91816 -8.39347 17668 ft 390 kts 70°
2026-05-07 19:45 52.92769 -8.35192 18269 ft 393 kts 70°
2026-05-07 19:45 52.93759 -8.30872 18801 ft 397 kts 71°
2026-05-07 19:46 52.94726 -8.26641 19342 ft 399 kts 71°
2026-05-07 19:46 52.95708 -8.22316 19890 ft 402 kts 71°
2026-05-07 19:46 52.96697 -8.17953 20442 ft 405 kts 71°
2026-05-07 19:46 52.97692 -8.13559 20981 ft 408 kts 71°
2026-05-07 19:47 52.98695 -8.09132 21522 ft 412 kts 71°
2026-05-07 19:47 52.99703 -8.04667 22047 ft 415 kts 71°
2026-05-07 19:47 53.00715 -8.00166 22580 ft 418 kts 71°
2026-05-07 19:47 53.01735 -7.95621 23106 ft 421 kts 71°
2026-05-07 19:48 53.02763 -7.91036 23599 ft 424 kts 71°
2026-05-07 19:48 53.03794 -7.86437 24025 ft 427 kts 71°
2026-05-07 19:48 53.04832 -7.81801 24453 ft 429 kts 71°
2026-05-07 19:48 53.05877 -7.77130 24874 ft 431 kts 71°
2026-05-07 19:49 53.06922 -7.72435 25285 ft 433 kts 71°
2026-05-07 19:49 53.07966 -7.67724 25692 ft 435 kts 71°
2026-05-07 19:49 53.09010 -7.62989 26086 ft 437 kts 71°
2026-05-07 19:49 53.10048 -7.58273 26471 ft 439 kts 71°
2026-05-07 19:50 53.11103 -7.53476 26850 ft 441 kts 71°
2026-05-07 19:50 53.12162 -7.48677 27223 ft 443 kts 71°
2026-05-07 19:50 53.13225 -7.43840 27610 ft 445 kts 71°
2026-05-07 19:50 53.14291 -7.38986 27947 ft 447 kts 71°
2026-05-07 19:51 53.15359 -7.34100 28306 ft 449 kts 71°
2026-05-07 19:51 53.16428 -7.29197 28654 ft 451 kts 71°
2026-05-07 19:51 53.17499 -7.24264 28993 ft 453 kts 71°
2026-05-07 19:51 53.18557 -7.19378 29310 ft 455 kts 71°
2026-05-07 19:52 53.19634 -7.14408 29641 ft 457 kts 71°
2026-05-07 19:52 53.20716 -7.09412 29953 ft 459 kts 72°
2026-05-07 19:52 53.21800 -7.04383 30209 ft 461 kts 72°
2026-05-07 19:52 53.22882 -6.99344 30451 ft 463 kts 72°
2026-05-07 19:53 53.23966 -6.94266 30692 ft 464 kts 72°
2026-05-07 19:53 53.25047 -6.89184 30920 ft 466 kts 72°
2026-05-07 19:53 53.26135 -6.84068 31141 ft 468 kts 72°
2026-05-07 19:53 53.27222 -6.78956 31448 ft 467 kts 72°
2026-05-07 19:54 53.28309 -6.73823 31768 ft 466 kts 72°
2026-05-07 19:54 53.29386 -6.68718 32100 ft 466 kts 72°
2026-05-07 19:54 53.30449 -6.63665 32407 ft 465 kts 72°
2026-05-07 19:54 53.31519 -6.58566 32731 ft 464 kts 72°
2026-05-07 19:55 53.32588 -6.53465 32924 ft 463 kts 72°
2026-05-07 19:55 53.33641 -6.48437 32949 ft 453 kts 72°
2026-05-07 19:55 53.35705 -6.38574 32948 ft 446 kts 72°
2026-05-07 19:56 53.37741 -6.28760 32946 ft 446 kts 73°
2026-05-07 19:56 53.39766 -6.18912 32947 ft 446 kts 73°
2026-05-07 19:57 53.41783 -6.09072 32947 ft 446 kts 73°
2026-05-07 19:57 53.43788 -5.99303 32945 ft 446 kts 73°
2026-05-07 19:58 53.45804 -5.89458 32948 ft 446 kts 73°
2026-05-07 19:58 53.47793 -5.79616 32950 ft 446 kts 73°
2026-05-07 19:59 53.49778 -5.69733 32959 ft 446 kts 73°
2026-05-07 19:59 53.51754 -5.59846 32961 ft 446 kts 73°
2026-05-07 20:00 53.53381 -5.49849 32965 ft 442 kts 85°
2026-05-07 20:00 53.53469 -5.39591 32966 ft 438 kts 95°
2026-05-07 20:01 53.53214 -5.29363 32970 ft 438 kts 95°
2026-05-07 20:01 53.52952 -5.19107 32972 ft 438 kts 96°
2026-05-07 20:02 53.52659 -5.08736 32996 ft 451 kts 96°
2026-05-07 20:02 53.52320 -4.98205 32997 ft 455 kts 96°
2026-05-07 20:03 53.51966 -4.87560 32996 ft 456 kts 96°
2026-05-07 20:03 53.51619 -4.76900 33003 ft 457 kts 96°
2026-05-07 20:04 53.51263 -4.66248 32949 ft 456 kts 96°
2026-05-07 20:04 53.51081 -4.60953 32327 ft 450 kts 96°
2026-05-07 20:04 53.50898 -4.55763 31352 ft 443 kts 96°
2026-05-07 20:05 53.50713 -4.50615 30430 ft 437 kts 96°
2026-05-07 20:05 53.50531 -4.45553 29463 ft 431 kts 96°
2026-05-07 20:05 53.50351 -4.40571 28472 ft 425 kts 96°
2026-05-07 20:05 53.50174 -4.35715 27528 ft 419 kts 96°
2026-05-07 20:06 53.49995 -4.30852 26604 ft 413 kts 96°
2026-05-07 20:06 53.49816 -4.26078 25722 ft 408 kts 96°
2026-05-07 20:06 53.49633 -4.21338 24869 ft 404 kts 96°
2026-05-07 20:06 53.49452 -4.16656 24046 ft 399 kts 96°
2026-05-07 20:07 53.49275 -4.12035 23181 ft 395 kts 96°
2026-05-07 20:07 53.49094 -4.07453 22283 ft 390 kts 96°
2026-05-07 20:07 53.48913 -4.02934 21544 ft 382 kts 96°
2026-05-07 20:07 53.48735 -3.98555 21089 ft 367 kts 98°
2026-05-07 20:08 53.48287 -3.94440 20652 ft 350 kts 110°
2026-05-07 20:08 53.47521 -3.90653 20247 ft 336 kts 112°
2026-05-07 20:08 53.46776 -3.87054 19856 ft 325 kts 112°
2026-05-07 20:08 53.46044 -3.83508 19472 ft 320 kts 112°
2026-05-07 20:09 53.45316 -3.79993 19095 ft 319 kts 112°
2026-05-07 20:09 53.44581 -3.76439 18709 ft 319 kts 112°
2026-05-07 20:09 53.43850 -3.72915 18335 ft 319 kts 112°
2026-05-07 20:10 53.42399 -3.65948 17540 ft 318 kts 112°
2026-05-07 20:10 53.41677 -3.62451 17166 ft 317 kts 109°
2026-05-07 20:10 53.41240 -3.58769 17001 ft 329 kts 97°
2026-05-07 20:10 53.41076 -3.54886 17019 ft 334 kts 96°
2026-05-07 20:11 53.40965 -3.52313 17018 ft 335 kts 96°
2026-05-07 20:11 53.40792 -3.48404 17019 ft 336 kts 96°
2026-05-07 20:11 53.40618 -3.44499 16722 ft 337 kts 96°
2026-05-07 20:11 53.40437 -3.40503 15916 ft 349 kts 96°
2026-05-07 20:12 53.40249 -3.36417 15418 ft 350 kts 96°
2026-05-07 20:12 53.40063 -3.32363 15000 ft 348 kts 96°
2026-05-07 20:12 53.39879 -3.28330 14603 ft 346 kts 96°
2026-05-07 20:12 53.39692 -3.24315 14210 ft 344 kts 96°
2026-05-07 20:13 53.39507 -3.20358 13553 ft 339 kts 96°
2026-05-07 20:13 53.39373 -3.16522 13200 ft 323 kts 90°
2026-05-07 20:13 53.39700 -3.12832 12651 ft 317 kts 75°
2026-05-07 20:13 53.40562 -3.09465 12021 ft 315 kts 60°
2026-05-07 20:14 53.41671 -3.06319 11358 ft 312 kts 61°
2026-05-07 20:14 53.42763 -3.03197 10713 ft 309 kts 61°
2026-05-07 20:14 53.43845 -3.00089 10094 ft 306 kts 62°
2026-05-07 20:14 53.44891 -2.97070 9644 ft 302 kts 62°
2026-05-07 20:15 53.45938 -2.94037 9248 ft 300 kts 62°
2026-05-07 20:15 53.46977 -2.91015 8855 ft 298 kts 62°
2026-05-07 20:15 53.48016 -2.87994 8473 ft 298 kts 62°
2026-05-07 20:15 53.49047 -2.84996 8090 ft 296 kts 62°
2026-05-07 20:16 53.50076 -2.81996 7703 ft 294 kts 62°
2026-05-07 20:16 53.51095 -2.79027 7331 ft 292 kts 62°
2026-05-07 20:16 53.52095 -2.76119 7167 ft 282 kts 62°
2026-05-07 20:16 53.53027 -2.73300 7040 ft 271 kts 69°
2026-05-07 20:17 53.53534 -2.70303 7027 ft 264 kts 86°
2026-05-07 20:17 53.53521 -2.67251 7029 ft 260 kts 101°
2026-05-07 20:17 53.53298 -2.64230 7031 ft 261 kts 100°
2026-05-07 20:17 53.53083 -2.61204 7029 ft 260 kts 100°
2026-05-07 20:18 53.52870 -2.58185 7027 ft 261 kts 100°
2026-05-07 20:18 53.52657 -2.55166 7026 ft 261 kts 100°
2026-05-07 20:18 53.52443 -2.52128 7031 ft 261 kts 100°
2026-05-07 20:18 53.52232 -2.49145 7028 ft 261 kts 100°
2026-05-07 20:19 53.52017 -2.46123 7031 ft 261 kts 100°
2026-05-07 20:19 53.51799 -2.43099 7031 ft 261 kts 100°
2026-05-07 20:19 53.51579 -2.40063 7029 ft 261 kts 100°
2026-05-07 20:19 53.51360 -2.37033 7029 ft 261 kts 100°
2026-05-07 20:20 53.51143 -2.34020 7029 ft 261 kts 100°
2026-05-07 20:20 53.50922 -2.30996 7031 ft 260 kts 100°
2026-05-07 20:20 53.50698 -2.27952 7036 ft 270 kts 99°
2026-05-07 20:20 53.50765 -2.24732 7031 ft 284 kts 77°
2026-05-07 20:21 53.51393 -2.21576 6911 ft 285 kts 71°
2026-05-07 20:21 53.52101 -2.18484 6511 ft 284 kts 70°
2026-05-07 20:21 53.52825 -2.15373 6175 ft 280 kts 70°
2026-05-07 20:21 53.53525 -2.12396 5997 ft 269 kts 70°
2026-05-07 20:22 53.54192 -2.09588 5849 ft 248 kts 70°
2026-05-07 20:22 53.54806 -2.07030 5676 ft 231 kts 70°
2026-05-07 20:22 53.55412 -2.04529 5288 ft 226 kts 70°
2026-05-07 20:22 53.56000 -2.02101 4830 ft 222 kts 74°
2026-05-07 20:23 53.56217 -1.99637 4386 ft 213 kts 99°
2026-05-07 20:23 53.55688 -1.97410 3918 ft 200 kts 136°
2026-05-07 20:23 53.54634 -1.95987 3467 ft 196 kts 155°
2026-05-07 20:23 53.53370 -1.95259 3032 ft 190 kts 174°
2026-05-07 20:24 53.52065 -1.95304 3026 ft 192 kts 191°
2026-05-07 20:24 53.50814 -1.96064 3012 ft 193 kts 208°
2026-05-07 20:24 53.49765 -1.97507 3013 ft 196 kts 227°
2026-05-07 20:24 53.48938 -1.99235 3010 ft 183 kts 228°
2026-05-07 20:25 53.48153 -2.00882 3002 ft 179 kts 228°
2026-05-07 20:25 53.47376 -2.02509 3054 ft 178 kts 228°
2026-05-07 20:25 53.46607 -2.04118 3019 ft 176 kts 228°
2026-05-07 20:25 53.45835 -2.05729 3014 ft 176 kts 228°
2026-05-07 20:26 53.45067 -2.07335 2987 ft 176 kts 228°
2026-05-07 20:26 53.44302 -2.08931 2837 ft 176 kts 228°
2026-05-07 20:26 53.43546 -2.10509 2626 ft 175 kts 228°
2026-05-07 20:26 53.42789 -2.12087 2397 ft 168 kts 227°
2026-05-07 20:27 53.42088 -2.13550 2179 ft 158 kts 227°
2026-05-07 20:27 53.41394 -2.14995 1958 ft 156 kts 228°
2026-05-07 20:27 53.40727 -2.16381 1757 ft 152 kts 227°
2026-05-07 20:27 53.40097 -2.17695 1564 ft 140 kts 227°
2026-05-07 20:28 53.39496 -2.18943 1374 ft 135 kts 227°
2026-05-07 20:28 53.38909 -2.20161 1201 ft 135 kts 228°
2026-05-07 20:28 53.38312 -2.21400 1015 ft 136 kts 228°
2026-05-07 20:28 53.37709 -2.22636 823 ft 138 kts 229°
2026-05-07 20:29 53.37101 -2.23883 630 ft 139 kts 229°
2026-05-07 20:29 53.36503 -2.25136 412 ft 139 kts 231°
2026-05-07 20:29 53.35898 -2.26417 265 ft 134 kts 230°
2026-05-07 20:29 53.35406 -2.27429 252 ft 88 kts 231°
2026-05-07 20:30 53.35260 -2.27855 240 ft 28 kts 259°
2026-05-07 20:30 53.35234 -2.28150 236 ft 10 kts 265°
2026-05-07 20:30 53.35260 -2.28220 237 ft 3 kts 24°
2026-05-07 20:30 53.35295 -2.28181 238 ft 12 kts 36°
2026-05-07 20:31 53.35338 -2.28113 240 ft 4 kts 45°
2026-05-07 20:31 53.35340 -2.28109 240 ft 0 kts 45°
2026-05-07 20:31 53.35358 -2.28081 241 ft 8 kts 45°
2026-05-07 20:32 53.35390 -2.28028 242 ft 4 kts 44°
2026-05-07 20:32 53.35421 -2.27977 244 ft 12 kts 43°
2026-05-07 20:32 53.35487 -2.27916 247 ft 9 kts 15°
2026-05-07 20:32 53.35562 -2.27904 248 ft 19 kts
2026-05-07 20:33 53.35699 -2.27881 252 ft 20 kts
2026-05-07 20:33 53.35830 -2.27860 255 ft 19 kts
2026-05-07 20:33 53.35953 -2.27843 255 ft 14 kts
2026-05-07 20:33 53.36002 -2.27836 255 ft 0 kts
2026-05-07 20:34 53.36009 -2.27835 255 ft 2 kts
2026-05-07 20:34 53.36029 -2.27842 255 ft 5 kts 350°
2026-05-07 20:34 53.36067 -2.27859 255 ft 10 kts 336°
2026-05-07 20:34 53.36128 -2.27955 255 ft 12 kts 315°
2026-05-07 20:35 53.36206 -2.28090 255 ft 18 kts 315°
2026-05-07 20:35 53.36293 -2.28231 255 ft 17 kts 314°
2026-05-07 20:35 53.36366 -2.28355 255 ft 13 kts 314°
2026-05-07 20:35 53.36420 -2.28447 255 ft 11 kts 315°
2026-05-07 20:36 53.36478 -2.28548 255 ft 13 kts 315°
2026-05-07 20:36 53.36548 -2.28665 255 ft 15 kts 311°
2026-05-07 20:36 53.36598 -2.28778 255 ft 10 kts 335°
2026-05-07 20:36 53.36646 -2.28754 255 ft 6 kts 47°
2026-05-07 20:37 53.36668 -2.28714 255 ft 6 kts 45°
2026-05-07 20:37 53.36707 -2.28648 255 ft 10 kts 46°
2026-05-07 20:37 53.36760 -2.28564 255 ft 7 kts 28°
2026-05-07 20:37 53.36796 -2.28593 255 ft 5 kts 314°
2026-05-07 20:38 53.36813 -2.28623 255 ft 2 kts 314°
2026-05-07 20:38 53.36820 -2.28634 255 ft 1 kts 315°
2026-05-07 20:38 53.36827 -2.28646 255 ft 2 kts 315°
2026-05-07 20:38 53.36830 -2.28651 255 ft 0 kts 315°